Wind_Speed
15 16 16 17 17 17 16 15 16 15 15 15 14 15 17 20 20 23 26 18 20 29 15 14 19 15 11 10 13 16 13 15 20 17 13 9 12 8 3 9 9 7 1 11 28
17 16 17 18 18 18 17 16 16 16 16 15 16 15 16 19 22 34 30 26 30 20 21 23 15 13 4 10 7 11 12 20 16 14 12 12 15 14 8 12 10 10 5 26 28
17 18 18 18 19 18 18 17 17 16 16 17 18 17 16 17 22 33 27 31 30 30 27 21 18 14 9 10 16 11 19 14 16 11 9 11 15 15 12 14 14 17 17 21 25
19 19 19 19 19 19 18 17 17 17 17 17 18 16 16 13 12 1 17 34 33 32 28 23 13 15 10 12 20 17 20 20 16 5 6 11 14 14 17 5 14 14 19 22 22
20 20 20 19 19 19 19 18 17 18 18 18 18 14 13 14 17 34 20 13 33 38 29 19 15 13 15 12 16 21 16 18 12 8 8 9 15 14 18 5 5 16 20 22 20
21 22 21 20 20 20 19 19 18 19 20 19 19 14 17 23 26 36 28 22 33 42 38 26 19 22 17 13 16 9 24 14 13 13 7 8 13 13 15 9 12 18 20 21 22
21 22 21 21 21 20 19 20 20 21 22 22 21 15 14 26 15 20 29 23 27 44 25 34 17 19 10 9 8 7 11 18 14 13 9 12 15 14 12 13 16 17 17 19 19
26 26 23 22 21 20 20 20 22 23 25 25 24 14 13 18 31 34 13 22 24 36 34 28 22 10 7 7 6 4 5 13 16 10 7 13 18 22 14 16 17 17 17 18 20
28 26 24 21 20 19 19 21 24 26 28 27 17 6 10 13 31 36 31 18 20 31 25 26 21 5 5 13 5 11 12 22 17 14 7 15 14 18 17 17 16 17 17 17 18
29 25 20 18 16 17 17 20 25 21 14 17 18 9 10 16 11 26 24 24 17 14 13 12 6 6 5 8 19 16 18 17 21 14 13 16 16 15 18 17 18 17 17 18 19
24 18 15 14 13 13 14 12 4 4 4 7 4 14 13 17 13 17 19 16 17 21 10 7 11 18 22 24 14 21 21 19 27 11 17 17 19 13 14 17 19 18 17 17 19
12 8 9 10 10 10 11 5 4 6 9 10 14 15 26 14 9 15 27 15 9 10 12 5 21 28 22 20 12 21 20 16 7 7 12 18 19 19 12 18 21 20 19 18 18
4 2 4 5 8 10 9 11 9 12 5 6 5 6 6 11 5 10 5 17 17 13 13 20 10 22 18 16 18 8 20 19 12 4 2 5 15 19 15 14 16 19 18 19 20
9 7 5 7 6 6 8 13 19 6 4 5 5 2 6 7 8 1 2 4 2 10 21 8 2 21 18 17 16 17 10 12 14 15 13 9 10 21 21 18 18 19 18 20 20
9 8 7 6 10 6 8 20 15 1 5 7 5 9 5 4 7 2 7 4 7 4 1 3 12 20 20 24 21 5 7 5 3 14 7 1 6 17 22 24 23 21 21 20 20
10 11 12 5 6 4 18 16 3 3 4 5 4 5 3 2 4 4 5 8 6 3 9 3 4 3 2 9 13 7 12 11 5 2 7 13 13 16 22 23 23 21 20 20 20
13 14 11 5 5 14 11 3 2 4 1 9 5 7 7 2 3 3 6 3 6 4 3 4 3 2 6 11 4 6 12 4 4 3 3 20 15 15 13 19 21 22 21 19 18
17 18 9 8 9 13 3 2 3 3 4 4 3 6 4 7 3 3 8 3 5 6 2 3 3 3 6 5 8 12 10 4 6 6 8 3 12 10 20 15 12 14 13 20 18
18 9 5 3 15 3 3 2 2 4 6 7 6 2 2 4 2 2 1 6 4 3 0 3 4 2 3 3 8 5 7 1 2 1 5 8 6 7 8 9 10 11 9 10 14
12 7 4 12 9 4 2 2 3 2 4 3 5 4 2 2 2 1 5 2 6 3 5 2 4 3 3 5 4 3 4 3 2 6 6 8 10 9 10 16 16 15 14 11 10
5 4 0 21 2 4 3 3 4 0 3 3 3 3 4 2 1 1 3 2 2 5 7 2 2 1 1 4 7 3 3 5 2 3 3 3 4 5 14 14 15 14 13 10 10
3 2 8 10 3 2 2 1 6 7 2 3 2 3 3 2 2 2 1 4 3 7 5 2 3 3 2 3 3 8 7 11 3 4 2 2 2 5 5 6 4 5 8 7 9
1 3 5 6 2 2 3 3 3 9 7 5 4 2 3 3 1 2 1 4 6 3 5 4 2 5 3 1 1 6 9 14 9 1 10 5 2 1 3 5 4 1 4 8 8
2 2 3 4 3 2 2 3 5 5 3 7 5 3 2 4 5 2 1 5 3 3 8 4 2 2 2 3 7 5 11 12 12 5 5 11 8 3 5 4 4 2 2 5 7
3 2 0 2 4 4 2 2 5 6 7 9 5 9 3 4 3 2 2 2 4 5 3 2 2 2 3 3 1 3 13 18 20 18 9 7 11 9 5 6 4 3 3 5 5
2 2 2 1 3 1 3 4 6 5 7 5 7 10 10 5 6 4 2 2 2 2 2 2 2 2 2 4 1 4 8 18 20 18 19 12 11 6 4 1 3 3 5 5 7
1 1 2 1 2 1 1 2 5 5 3 5 7 5 7 7 10 7 5 2 3 1 1 1 3 1 2 3 1 5 11 14 13 16 14 18 17 6 5 8 6 4 7 7 8
Wind_Direction
318 313 312 311 306 301 298 298 296 295 296 298 302 290 284 285 284 274 253 241 244 247 211 197 199 232 289 272 262 268 253 241 236 227 239 150 188 204 124 151 183 180 328 116 153
318 315 313 311 305 300 298 295 289 292 291 288 290 296 295 285 279 266 251 244 240 229 201 203 194 201 245 261 236 219 226 242 243 245 243 190 202 174 179 178 184 164 119 130 151
314 314 311 308 307 301 296 292 289 283 291 288 286 289 290 298 277 263 249 237 236 225 214 211 192 185 204 249 239 239 236 237 258 256 271 213 211 174 202 199 200 187 156 149 159
308 309 305 305 307 301 295 290 289 280 289 284 286 273 286 277 243 325 231 225 227 224 211 197 158 164 215 219 234 240 236 246 259 254 251 225 207 197 210 186 209 182 162 161 168
306 302 302 303 306 304 295 288 288 279 283 282 282 271 284 249 241 248 295 263 217 214 195 185 182 182 197 221 233 229 245 229 241 241 239 253 221 206 210 111 187 144 156 170 174
302 300 302 304 303 300 295 290 285 280 281 277 273 263 261 257 256 257 263 252 218 199 186 185 197 193 206 215 208 232 238 253 237 226 219 217 227 208 212 141 157 153 166 174 180
297 298 299 301 299 299 298 292 288 282 277 275 272 262 261 244 249 249 242 239 225 204 195 191 197 185 160 183 189 287 228 243 231 215 217 213 211 222 205 166 167 172 171 176 182
294 295 298 295 297 301 299 292 286 281 277 273 269 255 260 258 245 246 247 238 236 229 204 174 163 151 191 115 124 201 244 216 209 190 203 200 215 222 192 177 179 180 175 178 185
293 293 296 294 297 302 298 294 290 285 280 276 261 223 259 253 225 232 221 236 216 217 175 154 149 134 128 173 146 198 206 209 232 202 180 198 225 195 173 191 185 184 180 180 185
292 287 290 294 296 299 301 298 297 293 271 272 226 237 232 229 210 216 204 225 222 183 143 158 148 145 142 182 202 189 212 199 205 195 207 197 228 171 179 193 196 188 184 183 185
286 281 284 291 296 299 312 315 312 280 198 246 283 246 296 213 188 207 185 208 225 183 165 183 169 184 188 200 206 200 202 201 204 178 190 201 218 190 195 203 207 189 192 188 191
283 275 284 290 292 295 303 275 261 292 288 238 251 263 267 292 208 203 184 194 175 217 140 174 194 180 180 190 193 198 200 223 160 167 211 202 216 226 201 211 206 203 195 193 190
1 351 316 303 301 300 273 292 327 304 269 280 250 262 232 206 286 211 221 189 179 189 208 186 164 170 175 176 202 200 201 207 200 149 251 195 234 220 209 224 225 223 211 197 193
28 29 353 325 295 311 293 337 333 296 278 339 320 111 285 199 207 208 253 116 114 187 181 229 252 164 172 180 189 211 209 204 217 173 205 223 234 214 212 210 212 211 220 207 198
7 360 338 335 311 305 326 320 323 215 280 352 285 305 285 181 160 69 24 57 116 87 200 217 170 163 174 194 186 202 140 160 280 185 143 279 249 237 197 210 208 207 209 214 207
7 3 4 357 287 305 313 315 292 238 270 353 311 307 180 180 129 68 40 50 76 28 52 49 13 122 131 131 171 144 97 57 44 22 200 185 198 227 230 213 210 206 213 206 208
339 333 328 324 303 317 316 263 271 274 23 343 340 329 346 98 99 143 144 119 115 130 103 32 9 44 110 85 54 128 133 117 187 189 238 180 204 229 212 202 220 209 205 207 202
327 324 291 266 293 315 281 279 300 31 338 350 333 320 15 7 5 95 144 98 64 70 107 144 158 142 164 144 168 163 157 174 165 186 164 231 219 223 235 259 215 216 226 209 199
329 322 288 226 318 287 253 302 2 355 326 316 306 317 352 26 0 107 153 126 117 188 59 108 65 346 53 106 133 173 221 82 32 162 172 196 227 282 233 242 185 214 215 233 202
324 310 266 318 326 213 72 34 304 284 299 275 350 356 45 46 31 77 151 22 131 129 78 76 109 9 43 71 360 214 150 174 213 183 221 196 232 244 194 211 211 203 206 208 208
316 323 132 342 24 53 69 356 306 256 324 315 334 341 34 52 30 84 27 27 79 90 83 9 217 64 222 191 157 117 167 233 258 293 284 238 233 7 204 212 207 210 202 177 172
333 340 332 357 44 39 60 297 316 337 30 298 299 336 7 49 24 79 52 2 85 134 134 59 94 123 78 42 353 223 212 203 212 187 288 27 291 341 35 39 16 60 174 157 154
22 297 345 342 75 54 344 337 327 7 5 344 339 354 333 21 58 50 53 29 134 118 151 151 132 123 104 109 14 209 204 215 245 312 218 203 161 30 114 107 98 79 164 166 153
37 360 353 41 6 90 22 0 335 25 357 360 350 311 335 22 18 116 78 24 23 79 79 64 161 283 188 51 131 185 199 210 211 214 210 231 257 99 70 58 89 143 210 178 173
19 81 27 4 31 22 28 14 13 8 346 11 14 10 336 6 357 70 64 107 54 123 107 104 113 110 46 355 163 205 191 201 216 225 227 232 230 271 63 61 42 78 138 161 173
118 151 173 85 297 334 11 14 21 9 13 19 11 11 49 57 29 348 346 19 64 101 102 182 125 138 117 47 324 276 233 208 225 230 242 264 289 12 320 47 287 163 154 201 192
109 118 290 317 316 298 56 19 10 339 59 39 348 11 24 6 336 20 30 31 352 289 109 104 132 142 126 354 324 256 232 214 225 229 233 235 238 301 315 291 230 223 173 195 200
Height
804 803 803 801 799 797 795 793 792 790 791 788 788 789 788 786 785 785 779 783 784 784 785 787 792 803 805 803 802 796 800 792 777 773 764 762 769 766 765 770 775 778 776 781 798
802 800 799 797 795 793 791 789 788 788 786 786 785 786 785 784 781 770 777 779 780 782 785 785 788 799 807 801 800 797 794 784 763 756 761 763 764 768 775 774 778 782 785 790 800
799 798 796 793 791 789 787 785 784 784 783 782 782 782 782 782 776 756 766 771 774 779 784 785 789 798 806 804 793 788 790 773 764 762 757 759 765 764 769 776 769 777 782 795 801
796 794 792 789 786 784 782 780 779 779 778 779 779 779 779 780 772 748 753 761 768 774 778 779 786 795 800 803 793 792 776 771 764 767 767 761 756 765 763 763 759 766 778 794 799
793 791 788 784 781 780 778 775 774 774 774 774 774 775 776 769 761 751 754 759 762 767 768 768 777 783 790 797 800 785 776 768 767 770 766 760 761 761 761 761 761 765 780 792 796
790 787 784 781 777 776 773 771 769 769 769 770 771 772 772 761 755 751 754 756 755 759 759 764 764 773 787 793 794 780 778 771 767 767 765 768 762 761 755 761 764 773 780 788 791
785 783 780 777 774 771 768 767 765 765 766 766 767 767 763 741 746 745 747 750 750 752 754 761 765 769 779 783 782 779 786 775 768 762 763 765 766 768 751 760 767 772 777 784 788
780 778 775 772 769 766 764 761 761 761 761 760 761 760 746 739 741 742 744 744 745 749 753 756 760 768 771 780 781 789 787 791 759 761 760 763 767 755 748 758 765 768 773 781 785
774 771 770 768 766 763 761 758 757 755 753 753 754 754 740 728 730 726 739 738 740 739 738 749 755 762 773 769 789 788 788 779 771 756 761 762 757 737 749 755 759 763 768 776 782
768 766 765 764 762 760 758 755 752 748 745 744 744 748 733 719 722 724 731 735 737 737 734 745 753 758 764 765 768 778 775 772 775 760 761 762 750 733 748 752 751 758 764 770 775
761 761 761 761 760 758 756 754 752 748 745 740 734 728 710 715 718 718 724 735 727 729 721 734 736 737 750 758 756 758 766 762 759 750 756 753 752 746 748 750 750 752 758 763 768
758 758 758 759 758 756 756 754 753 753 741 733 729 728 722 717 715 721 726 735 717 715 722 732 720 720 740 751 756 755 763 757 758 761 754 748 749 741 745 749 745 745 751 758 763
758 757 757 758 757 755 754 754 751 749 743 727 723 718 716 719 712 712 720 717 713 718 725 716 714 719 739 749 756 759 757 756 755 769 759 753 754 748 743 749 747 742 742 748 756
759 758 759 758 758 754 753 752 750 748 737 725 718 718 714 714 721 709 710 712 716 718 722 719 718 719 737 745 754 760 752 752 753 765 766 756 751 733 738 747 747 745 742 742 749
760 760 759 757 757 754 756 752 750 749 718 724 725 717 710 707 709 708 711 710 717 723 728 735 722 721 730 731 748 753 750 758 767 760 770 787 777 729 724 734 738 739 741 743 743
762 759 759 758 758 756 752 750 749 740 702 722 727 718 709 706 707 711 715 713 722 727 730 733 732 730 737 740 744 758 757 772 780 777 775 775 775 741 721 717 722 727 730 734 739
763 760 758 758 758 754 751 750 739 718 734 728 730 720 712 704 707 709 713 719 722 724 734 744 747 744 739 756 763 757 756 776 780 780 757 751 765 726 702 705 708 712 720 725 731
761 757 756 756 756 751 750 745 728 738 737 737 735 728 718 715 710 709 710 716 721 723 733 729 739 741 744 746 750 753 751 758 752 752 752 765 754 726 712 706 704 704 708 715 724
760 756 754 754 753 750 745 736 744 748 750 744 735 728 724 722 720 710 713 716 723 727 724 724 739 749 746 744 745 758 754 754 748 765 736 739 727 719 714 711 712 716 720 721 716
759 755 752 751 748 748 753 752 756 756 754 750 728 726 717 725 721 723 721 721 729 728 728 731 737 757 751 748 756 751 746 758 759 758 741 709 715 705 718 712 710 716 721 724 724
758 754 750 748 746 747 753 761 760 751 754 750 741 731 725 725 726 723 723 729 721 730 733 733 728 758 757 749 751 759 760 757 745 747 725 715 709 703 695 700 705 712 717 723 729
758 764 749 745 756 767 756 762 752 746 750 750 749 743 734 730 731 728 728 729 729 729 735 742 738 745 751 760 759 740 747 743 737 751 741 747 714 713 710 713 720 714 720 720 724
765 756 749 746 758 762 768 757 751 748 747 745 741 748 742 736 729 736 737 737 734 734 737 741 745 740 750 758 765 752 748 740 731 744 737 734 709 717 713 714 719 723 724 725 728
763 766 758 758 763 762 764 771 764 748 747 745 744 742 744 742 740 737 742 740 738 739 742 745 745 734 716 725 731 748 745 741 739 746 730 725 709 708 713 713 716 723 726 728 732
770 776 780 767 772 765 758 760 753 760 749 745 743 744 742 744 745 745 741 741 741 743 746 750 740 750 748 739 735 730 737 740 739 733 730 719 721 709 716 715 719 723 728 732 735
774 772 779 777 772 763 763 765 762 758 753 751 754 751 743 748 748 745 744 743 740 745 744 749 744 746 749 744 741 735 726 732 732 730 727 724 730 723 719 723 725 726 730 733 735
772 772 769 778 775 762 768 767 763 761 759 758 758 756 757 758 756 750 751 750 747 743 744 746 747 744 735 749 737 738 730 725 726 726 726 732 725 721 725 722 724 723 727 732 734